Location: Kellogg
(38.0159°N, 90.0546°W)
Time: 11:46:54
(UTC+00:00)

Transit 2A - Pass Details

Date: 19 September 2024
Orbit: 590 x 960 km, 66.7° (Epoch: 11 October)

Event Time Altitude Azimuth Distance (km) Brightness Sun altitude
Rises 07:35:15 0° 339° (NNW) 3,630 9.8 -44.3°
Reaches altitude 10° 07:38:14 10° 350° (N) 2,655 9.1 -44.0°
Enters shadow 07:38:56 13° 354° (N) 2,440 8.9 -43.9°
Maximum altitude 07:43:35 30° 50° (NE) 1,572 - -43.3°
Drops below altitude 10° 07:48:36 10° 110° (ESE) 2,476 - -42.7°
Sets 07:51:16 0° 121° (ESE) 3,347 - -42.3°
